www.pogodaiklimat.ru

Погода и климат >> Архив погоды >> Россия >> Свердловская область >> Ивдель


ПОГОДА в Ивдель

  • Прогноз погоды в Ивдель
  • Монитор погоды в Ивдель
  • Климат города

АРХИВ ПОГОДЫ в Ивдель

Время (UTC), дата Ветер
(напр.,м/с)
 
Видим.   Явления Облачность Т
(С)
Тd
(С)
f
(%)
Тe
(С)
Тes
(С)
Комфортность P
(гПа)
Po
(гПа)
Тmin
(С)
Tmax
(С)
R
(мм)
R24
(мм)
S
(см)
06 17.05 З 2 50 км 8/6 600 м
[Cu hum Ci fib]
+7.7 -11.3 25 +7 +11 1027.3 1015.6
09 17.05 З 3 50 км 5/4 600 м
[Cu hum Ci fib]
+10.7 -12.6 18 +10 +16 1025.7 1014.2
12 17.05 З 3 50 км 4/3 600 м
[Cu hum Ci fib]
+12.2 -14.1 15 +11 +15 1024.3 1012.8
15 17.05 СЗ 2 50 км 9/0
[Ci fib]
+11.6 -14.0 15 +11 +12 1023.5 1012.0 +12.6
18 17.05 штиль 0 20 км 4/0
[Ac trans Ci fib]
+1.1 -5.4 62 +1 +1 1023.9 1012.0
21 17.05 штиль 0 10 км 9/0
[Ac trans Ci fib]
-1.8 -5.3 77 -3 -3 1023.6 1011.5
00 18.05 З 1 50 км 10/0
[Ac trans Ci fib]
+0.6 -4.8 67 -1 -1 1022.6 1010.6
03 18.05 З 1 50 км 10/0
[Ac trans Ci fib]
+0.6 -4.8 67 -1 +1 1022.6 1010.6
06 18.05 З 5 50 км 9/0
[Ac trans Ci fib]
+9.8 -1.4 46 +7 +11 1020.9 1009.4 -2.0
09 18.05 З 4-10
{12}
50 км 9/3 600 м
[Cu hum Ac trans Ci fib]
+15.6 -6.0 22 +15 +18 1017.7 1006.4
12 18.05 З 4
{16}
50 км 9/3 600 м
[Cu hum Ac trans Ci fib]
+16.4 -7.6 19 +16 +18 1016.9 1005.7
15 18.05 СЗ 3
{13}
50 км 9/6 1000 м
[Sc Ac trans]
+15.1 -11.2 15 +15 +15 1017.2 1005.9 +16.7
18 18.05 штиль 0 20 км 9/8 1000 м
[Sc Ac trans]
+9.3 -6.9 31 +9 +9 1018.7 1007.2
21 18.05 штиль 0 10 км 10/8 1000 м
[Sc Ac trans]
+4.1 -3.0 60 +4 +4 1019.1 1007.3
00 19.05 штиль 0 50 км 9/5 1000 м
[Sc Ac lent Ci fib]
+0.7 -2.9 77 -0 -0 1019.2 1007.3
03 19.05 Ю 1 50 км 9/8 1000 м
[Sc Ac trans]
+8.5 -2.8 45 +8 +9 1018.3 1006.7 +0.5
06 19.05 В 1 50 км 10/0
[Cs]
+14.1 -2.6 31 +15 +25 1017.1 1005.8
09 19.05 Ю 1 50 км 9/4 600 м
[Cb cap Ac trans]
+16.4 -4.8 23 +17 +22 1015.7 1004.5
12 19.05 Ю 2
{10}
50 км 9/6 600 м
[Cb cap Ac trans]
+16.6 -2.3 27 +17 +18 1014.8 1003.6
15 19.05 СВ 2 50 км 9/4 1000 м
[Sc Ac trans Ci fib]
+15.0 -1.6 32 +15 +15 1014.2 1003.0 +17.0
18 19.05 С 1 20 км 10/8 600 м
[Cb cap Ac trans]
+10.8 +1.0 51 +11 +11 1015.7 1004.3
21 19.05 штиль 0 10 км 9/5 600 м
[Cb cap Ac trans Ci fib]
+6.9 +1.5 68 +6 +6 1015.7 1004.1
00 20.05 штиль 0 50 км 9/5 600 м
[Cb cap Ac trans Ci fib]
+4.9 +1.6 79 +4 +4 1014.9 1003.3
03 20.05 ЮВ 1 50 км 9/4 600 м
[Cb cap Ac trans]
+8.6 +2.3 65 +8 +10 1013.8 1002.3 +4.3
06 20.05 ЮВ 2 27 км слабый ливневой дождь 10/6 600 м
[Cb cap Ac As]
+10.2 +4.1 66 +9 +10 1011.8 1000.4
09 20.05 В 1 29 км слабый ливневой дождь 10/8 600 м
[Cb cap Ac As]
+11.7 +7.1 73 +12 +13 1010.0 998.7
12 20.05 ЮВ 1 15 км в посл. час ливневой дождь 10/8 1000 м
[Sc Ac As]
+12.7 +10.4 86 +13 +13 1007.0 995.8
15 20.05 Ю 2 50 км 9/8 1000 м
[Sc Ac trans]
+13.9 +8.4 69 +13 +14 1002.6 991.5 +14.1 1
18 20.05 штиль 0 20 км {ливн. осадки} 10/8 600 м
[Cb cap Ac trans]
+11.0 +9.6 91 +10 +10 1001.0 989.8
21 20.05 ЮЗ 2 10 км ледяной дождь {ливн. осадки} 10/8 600 м
[Cb cap Ac trans]
+12.9 +8.2 73 +12 +12 998.0 986.9
00 21.05 Ю 2 50 км {ливн. осадки} 9/8 600 м
[Cb cap Ac trans]
+12.1 +8.0 76 +11 +11 995.9 984.8
03 21.05 З 5-10
{10}
50 км слабый ливневой дождь 9/9 600 м
[Cb cap]
+12.0 +5.4 64 +10 +10 996.4 985.3 +10.5 0.3
06 21.05 З 4
{13}
50 км {ливн. осадки} 8/8 600 м
[Cb cap]
+10.8 +1.9 54 +9 +10 999.3 988.1 +10.0
09 21.05 СЗ 5
{11}
50 км 8/8 600 м
[Cb cap]
+11.6 +0.2 45 +9 +11 1001.1 989.9
12 21.05 З 5
{10}
50 км 8/8 600 м
[Cb cap]
+12.7 -0.8 39 +11 +12 1001.1 989.9
15 21.05 СЗ 3 50 км 4/3 1000 м
[Sc Ac lent Ci fib]
+10.2 -2.3 41 +9 +9 1001.4 990.1 +13.4
18 21.05 С 2 20 км 8/5 1000 м
[Sc Ac trans]
+4.9 -2.7 58 +3 +3 1002.1 990.6
21 21.05 С 2 10 км 9/6 1000 м
[Sc Ac trans]
+1.0 -5.8 60 -2 -2 1002.7 991.0
00 22.05 СЗ 2 50 км 9/6 1000 м
[Sc Ac trans]
+0.5 -5.9 62 -3 -3 1001.3 989.6
03 22.05 С 3 50 км 4/0
[Ac trans Ci fib]
+4.0 -7.0 45 +1 +4 999.7 988.1 +0.3
06 22.05 СЗ 3 50 км 5/3 600 м
[Cu hum Ci fib]
+7.0 -8.8 31 +5 +11 999.1 987.7
09 22.05 З 5-10
{10}
50 км 9/9 600 м
[Cu Sc]
+8.3 -8.6 29 +6 +6 1000.1 988.8
12 22.05 З 4
{11}
50 км 9/8 600 м
[Cu Sc Ac trans]
+6.9 -8.7 32 +4 +5 1002.9 991.5
15 22.05 З 4
{11}
50 км 9/8 600 м
[Cb cap Ac trans]
+5.9 -5.2 45 +3 +3 1004.2 992.7 +9.6
18 22.05 СЗ 2 20 км 3/3 1000 м
[Sc Ac trans]
+2.6 -4.7 59 0 0 1005.9 994.3
21 22.05 СЗ 2 10 км 1/0
[Ac lent]
+0.9 -5.2 64 -2 -2 1006.8 995.1
00 23.05 СЗ 2 50 км 8/8 1000 м
[Sc]
+0.1 -4.9 69 -3 -3 1008.2 996.4
03 23.05 С 3 50 км 8/8 1000 м
[Sc]
+4.0 -5.1 51 +1 +2 1008.7 997.1 -0.7
06 23.05 С 3 50 км 9/9 1170 м
[Sc]
+5.0 -5.4 47 +2 +3 1008.8 997.2
09 23.05 С 3 50 км 5/1 600 м
[Cu hum Ci fib]
+8.4 -6.7 34 +7 +15 1007.9 996.5
12 23.05 СВ 3 50 км 8/6 600 м
[Cu hum Ci fib]
+10.6 -7.2 28 +9 +11 1006.3 995.0
15 23.05 СВ 1 50 км 8/4 600 м
[Cu hum Ci fib]
+10.1 -7.2 29 +10 +11 1006.1 994.7 +11.3
18 23.05 З 1 50 км 4/0
[Ac trans Ci fib]
+1.8 -3.3 69 0 0 1006.8 995.1
21 23.05 СЗ 1 10 км 3/0
[Ac trans Ci fib]
-1.4 -3.7 84 -4 -4 1006.8 995.0
00 24.05 ЮВ 1 50 км 3/0
[Ac trans Ci fib]
-2.4 -4.5 85 -5 -4 1006.3 994.4
03 24.05 штиль 0 50 км 8/0
[Ac trans Ci fib]
+6.8 -3.5 48 +7 +11 1005.3 993.8 -2.9

 

Местоположение метеостанции Ивдель (Свердловская область, Россия): широта 60.68 долгота 60.45 высота над уровнем моря 94 м.

В архиве по умолчанию представлена погода в Ивдель за последнюю неделю. Архивные данные за месяц целиком и за предыдущие месяцы, начиная с января 2011 года, Вы можете получить, выбрав интересующий диапазон дат из раскрывающегося списка и нажав кнопку "Ввод!".

Внимание! Время в таблицах - всемирное. Для получения местного времени необходимо прибавить поправку, которая в Ивдель равна 5 ч.

Смотрите также архив погоды в соседних городах и на ближайших метеорологических станциях:

Погода в Североуральске (Свердловская область, Россия) (56 км)
Погода в Атымье (Свердловская область, Россия) (103 км)
Погода в Карпинске (Свердловская область, Россия) (106 км)
Погода в Серове (Свердловская область, Россия) (120 км)
Погода в Кытлыме (Свердловская область, Россия) (148 км)
Погода в Гари (Свердловская область, Россия) (174 км)
Погода в Няксимволе (Ханты-Мансийский АО, Россия) (196 км)
Погода в Верхотурье (Свердловская область, Россия) (202 км)
Погода в Ныробе (Пермский край, Россия) (203 км)
Погода в Шаиме (Ханты-Мансийский АО, Россия) (210 км)

Пояснения к столбцам:

Ветер - указаны скорость ветра в м/с - средняя за 10 мин, порывы в срок и между сроками (в фигурных скобках) и направление, откуда дует ветер: С - северный, СВ - северо-восточный, В - восточный, ЮВ - юго-восточный, Ю - южный, ЮЗ - юго-западный, З - западный, СЗ - северо-западный.
Видимость - горизонтальная дальность видимости в метрах или километрах. При видимости от 1 до 10 км при отсутствии осадков обычно наблюдается дымка, при ухудшении видимости до 1 км и менее - туман. В сухую погоду видимость может ухудшаться дымом, пылью или мглою.
Явления - указаны атмосферные явления, наблюдавшиеся в срок или в последний час перед сроком; фигурными скобками обозначены явления, наблюдавшиеся между сроками (за 1-3 часа до срока); квадратными скобками обозначены град или гололедные отложения с указанием их диаметра в мм.
Облачность - указаны через наклонную черту общая и нижняя облачность в баллах и высота нижней границы облаков в метрах; квадратными скобками обозначены формы облаков: Ci - перистые, Cs - перисто-слоистые, Cc - перисто-кучевые, Ac - высококучевые, As - высокослоистые, Sc - слоисто-кучевые, Ns - слоисто-дождевые, Cu - кучевые, Cb - кучево-дождевые. Подробнее классификацию облаков см. в Атласе облаков (PDF).
T - Температура воздуха - температура, измеренная на высоте 2 м над землей.
Td - Температура точки росы - температура, при понижении до которой содержащийся в воздухе водяной пар достигнет насыщения.
f - Относительная влажность воздуха - влажноcть воздуха, измеренная на высоте 2 м над землей.
Te - Эффективная температура - температура, которую ощущает одетый по сезону человек в тени. Характеристика душности погоды. При расчете учитывается влияние влажности воздуха и скорости ветра на теплоощущения человека.
Tes - Эффективная температура на солнце - температура, которую ощущает человек, с поправкой на солнечный нагрев. Характеристика знойности погоды. Зависит от высоты солнца над горизонтом, облачности и скорости ветра. Ночью, в пасмурную погоду, а также при ветре 12 м/с и более поправка равна нулю.
P - Атмосферное давление - приведенное к уровню моря атмосферное давление.
Po - Атмосферное давление - измеренное на уровне метеостанции атмосферное давление.
Tmin - Минимальная температура - минимум температуры воздуха на высоте 2 м над землей.
Tmax - Максимальная температура - максимум температуры воздуха на высоте 2 м над землей.
R - Количество осадков - Количество выпавших осадков за период времени, мм. При наведении курсора мыши на число - период времени, за который выпало указанное количество осадков.
R24 - Количество осадков - Количество выпавших осадков за 24 часа, мм.
S - Снежный покров - Высота снежного покрова, см. При наведении курсора мыши на число - состояние снежного покрова и степень покрытия местности в баллах.